Location: Rounton
(54.4000°N, 1.3500°W)
Time: 22:33:19
(UTC+00:00)

Vanguard 3 - Pass Details

Date: 02 December 2021
Orbit: 508 x 3260 km, 33.3° (Epoch: 17 January)

Event Time Altitude Azimuth Distance (km) Brightness Sun altitude
Rises 06:46:23 0° 249° (WSW) 7,184 11.5 -10.6°
Reaches altitude 10° 06:52:15 10° 241° (WSW) 5,999 11.2 -9.8°
Maximum altitude 07:06:24 31° 190° (S) 3,717 10.7 -8.0°
Drops below altitude 10° 07:16:23 10° 135° (SE) 4,195 12.3 -6.7°
Sets 07:19:38 0° 124° (SE) 4,819 13.8 -6.3°
